Onweer radar Meer informatie blitzortung!


Regen radar Meer informatie rain snow radar


Bezoek onze andere website:

Template documentation
and downloads

And another site



15 daagse weersverwachting Molde (NO)

  • Overzicht
  • Per uur
  • 15 dagen
  • Extra
  • Vergelijk
  • Kaarten
  • Dagkaart
  • Meer »
  • Info
  • Statistieken
  • Directe link
    Temp 6h Neerslag Wind  
 03:33     23:35    Daglengte: 20:02 Vandaag
20:00
14°
 
3
 03:33     23:36    Daglengte: 20:03 Morgen
02:00
13°
4.2 mm
2
08:00
13°
4.2 mm
1
14:00
16°
 
3
20:00
17°
 
3
 03:33     23:36    Daglengte: 20:03 Dinsdag 18 Jun
02:00
13°
10.6 mm
2
08:00
14°
 
2
14:00
17°
8.9 mm
5
20:00
14°
13.5 mm
4
 03:32     23:37    Daglengte: 20:05 Woensdag 19 Jun
02:00
13°
11.2 mm
2
08:00
14°
2.7 mm
1
14:00
16°
7.0 mm
3
Locatie info
Region: Møre og Romsdal
Latitude: 62.7375°N
Longitude: 7.1591°E
3 masl
Temp/Neerslag /Baro Onweer/Dauwpunt
    Temp Baro 1h Neerslag Dauwpunt Wind UV Bewolking  
 03:33     23:35    Daglengte: 20:02 Vandaag
19:00
15°
1013.5 hPa
49%
12.2°
4
Windvlaag: 6.9 m/s
73%
20:00
14°
1013.8 hPa
82%
11.7°
3
Windvlaag: 5.5 m/s
87%
21:00
14°
1014.1 hPa 0.4 mm
82%
11.7°
3
Windvlaag: 4.8 m/s
88%
22:00
14°
1014.2 hPa 0.5 mm
82%
11.6°
1
Windvlaag: 3.2 m/s
90%
23:00
13°
1014.4 hPa 0.6 mm
82%
12.0°
1
Windvlaag: 1.4 m/s
89%
 03:33     23:36    Daglengte: 20:03 Morgen
00:00
13°
1014.5 hPa 0.6 mm
82%
12.1°
2
Windvlaag: 2.3 m/s
90%
01:00
13°
1014.7 hPa 1.0 mm
82%
11.9°
2
Windvlaag: 2.8 m/s
90%
02:00
13°
1014.8 hPa 1.1 mm
82%
11.8°
2
Windvlaag: 2.6 m/s
84%
03:00
13°
1014.7 hPa 0.7 mm
82%
11.5°
1
Windvlaag: 2.2 m/s
84%
04:00
13°
1014.5 hPa 0.7 mm
82%
11.1°
1
Windvlaag: 1.5 m/s
84%
05:00
13°
1014.3 hPa 0.9 mm
82%
11.0°
1
Windvlaag: 1.1 m/s
84%
06:00
13°
1014.1 hPa 0.8 mm
82%
10.8°
2
Windvlaag: 0.7 m/s
84%
07:00
12°
1014.1 hPa 1.1 mm
82%
10.3°
2
Windvlaag: 0.8 m/s
76%
08:00
13°
1014.1 hPa
82%
9.7°
1
Windvlaag: 0.8 m/s
59%
09:00
13°
1013.9 hPa
77%
9.9°
2
Windvlaag: 1.7 m/s
38%
10:00
13°
1013.7 hPa
36%
10.3°
2
Windvlaag: 2.9 m/s
31%
11:00
14°
1013.1 hPa
71%
10.1°
2
Windvlaag: 2.7 m/s
15%
12:00
15°
1012.6 hPa
24%
9.3°
2
Windvlaag: 2.4 m/s
7%
13:00
16°
1012.1 hPa
15%
9.4°
2
Windvlaag: 1.8 m/s
10%
14:00
16°
1011.5 hPa
17%
9.5°
3
Windvlaag: 1.7 m/s
17%
15:00
17°
1010.7 hPa
14%
9.5°
4
Windvlaag: 1.8 m/s
31%
16:00
18°
1010.0 hPa
14%
8.6°
3
Windvlaag: 2 m/s
47%
17:00
18°
1009.6 hPa
20%
9.2°
3
Windvlaag: 2.3 m/s
81%
18:00
18°
1009.1 hPa
15%
10.2°
2
Windvlaag: 1.7 m/s
58%
19:00
18°
1008.7 hPa
15%
10.5°
2
Windvlaag: 2.3 m/s
68%
20:00
17°
1008.6 hPa
72%
12.3°
3
Windvlaag: 3.3 m/s
66%
21:00
15°
1009.1 hPa 2.0 mm
82%
11.5°
2
Windvlaag: 1.7 m/s
76%
22:00
14°
1009.1 hPa 2.3 mm
82%
11.6°
2
Windvlaag: 1.7 m/s
58%
23:00
14°
1009.1 hPa
82%
11.3°
2
Windvlaag: 2.3 m/s
20%
 03:33     23:36    Daglengte: 20:03 Dinsdag 18 Jun
00:00
14°
1009.2 hPa 1.9 mm
82%
11.1°
2
Windvlaag: 1.6 m/s
26%
01:00
13°
1009.3 hPa 2.3 mm
82%
10.7°
2
Windvlaag: 2 m/s
18%
02:00
13°
1009.2 hPa 2.1 mm
82%
10.2°
2
Windvlaag: 2.4 m/s
9%
03:00
13°
1009.0 hPa
76%
9.3°
2
Windvlaag: 2.7 m/s
6%
04:00
13°
1008.7 hPa
18%
8.8°
2
Windvlaag: 3 m/s
14%
05:00
13°
1008.3 hPa
14%
8.6°
2
Windvlaag: 3.4 m/s
16%
06:00
13°
1008.1 hPa
14%
9.1°
2
Windvlaag: 3.3 m/s
33%
07:00
13°
1007.8 hPa
17%
9.4°
2
Windvlaag: 3 m/s
50%
08:00
14°
1007.5 hPa
24%
9.4°
2
Windvlaag: 3.6 m/s
23%
09:00
15°
1007.3 hPa
64%
9.3°
3
Windvlaag: 3.9 m/s
33%
10:00
15°
1007.3 hPa 2.0 mm
78%
10.3°
3
Windvlaag: 3.6 m/s
31%
11:00
16°
1007.3 hPa
81%
10.1°
4
Windvlaag: 5 m/s
20%
12:00
16°
1007.5 hPa 2.3 mm
79%
9.4°
5
Windvlaag: 8.4 m/s
28%
13:00
16°
1007.7 hPa 2.3 mm
79%
9.6°
5
Windvlaag: 7.5 m/s
29%
14:00
17°
1008.0 hPa 2.3 mm
82%
9.6°
5
Windvlaag: 6.1 m/s
30%
15:00
16°
1008.2 hPa 2.5 mm
82%
9.4°
6
Windvlaag: 7.7 m/s
31%
16:00
15°
1008.4 hPa 2.6 mm
81%
9.6°
6
Windvlaag: 8.1 m/s
22%
17:00
16°
1008.0 hPa 2.5 mm
99%
8.5°
6
Windvlaag: 7.6 m/s
34%
18:00
15°
1007.9 hPa
100%
10.1°
5
Windvlaag: 6.5 m/s
80%
19:00
15°
1007.9 hPa 2.9 mm
100%
9.8°
4
Windvlaag: 6 m/s
84%
20:00
14°
1007.8 hPa 3.0 mm
100%
9.2°
4
Windvlaag: 5.4 m/s
83%
21:00
14°
1008.0 hPa 2.8 mm
100%
9.1°
3
Windvlaag: 4.7 m/s
74%
22:00
14°
1008.1 hPa 3.1 mm
95%
9.0°
2
Windvlaag: 3.5 m/s
75%
23:00
14°
1008.2 hPa 2.7 mm
100%
9.5°
1
Windvlaag: 1.5 m/s
48%
 03:32     23:37    Daglengte: 20:05 Woensdag 19 Jun
00:00
13°
1008.1 hPa 2.6 mm
100%
9.9°
1
Windvlaag: 0.9 m/s
49%
01:00
13°
1007.9 hPa
100%
9.4°
2
Windvlaag: 3 m/s
50%
02:00
13°
1007.9 hPa
40%
8.9°
2
Windvlaag: 2.8 m/s
22%
03:00
13°
1007.9 hPa
98%
8.7°
2
Windvlaag: 2.4 m/s
40%
04:00
13°
1008.1 hPa 2.7 mm
100%
8.7°
2
Windvlaag: 2.4 m/s
41%
05:00
13°
1008.2 hPa
100%
8.7°
2
Windvlaag: 2.5 m/s
69%
06:00
13°
1008.4 hPa
96%
8.5°
2
Windvlaag: 2.1 m/s
46%
07:00
13°
1008.7 hPa
88%
7.6°
2
Windvlaag: 2.3 m/s
56%
08:00
14°
1008.9 hPa
100%
7.5°
1
Windvlaag: 2.3 m/s
42%
09:00
14°
1009.0 hPa
94%
8.2°
2
Windvlaag: 1.2 m/s
42%
10:00
14°
1009.2 hPa 2.7 mm
97%
8.9°
2
Windvlaag: 0.7 m/s
46%
11:00
15°
1009.5 hPa 4.4 mm
95%
9.7°
2
Windvlaag: -1.3 m/s
56%
12:00
15°
1009.8 hPa
98%
10.1°
2
Windvlaag: -1.6 m/s
62%
13:00
15°
1010.0 hPa
100%
10.8°
2
Windvlaag: -1.6 m/s
70%
14:00
16°
1010.1 hPa
100%
11.4°
3
Windvlaag: -0.5 m/s
72%
15:00
16°
1010.1 hPa
47%
11.6°
3
Windvlaag: 4.1 m/s
73%
16:00
16°
1010.0 hPa
44%
11.6°
3
Windvlaag: 3.8 m/s
84%
17:00
15°
1009.8 hPa
41%
11.5°
2
Windvlaag: 3.7 m/s
92%
18:00
15°
1009.5 hPa
32%
11.5°
2
Windvlaag: 3 m/s
88%
Temp/Neerslag /Baro Onweer/Dauwpunt
    Temp Baro Neerslag Dauwpunt Wind Bewolking  
 03:33     23:35    Daglengte: 20:02 Vandaag
20:00
14°
1013.8 hPa   11.7°
3
87%
23:00
13°
1014.4 hPa 1.4 mm 12.0°
1
89%
 03:33     23:36    Daglengte: 20:03 Morgen
02:00
13°
1014.8 hPa 2.7 mm 11.8°
2
84%
05:00
13°
1014.3 hPa 2.3 mm 11.0°
1
84%
08:00
13°
1014.1 hPa 1.9 mm 9.7°
1
59%
11:00
14°
1013.1 hPa   10.1°
2
15%
14:00
16°
1011.5 hPa   9.5°
3
17%
17:00
18°
1009.6 hPa   9.2°
3
81%
20:00
17°
1008.6 hPa   12.3°
3
66%
23:00
14°
1009.1 hPa 4.3 mm 11.3°
2
20%
 03:33     23:36    Daglengte: 20:03 Dinsdag 18 Jun
02:00
13°
1009.2 hPa 6.3 mm 10.2°
2
9%
05:00
13°
1008.3 hPa   8.6°
2
16%
08:00
14°
1007.5 hPa   9.4°
2
23%
11:00
16°
1007.3 hPa 2.0 mm 10.1°
4
20%
14:00
17°
1008.0 hPa 6.9 mm 9.6°
5
30%
17:00
16°
1008.0 hPa 7.5 mm 8.5°
6
34%
20:00
14°
1007.8 hPa 5.9 mm 9.2°
4
83%
23:00
14°
1008.2 hPa 8.6 mm 9.5°
1
48%
 03:32     23:37    Daglengte: 20:05 Woensdag 19 Jun
02:00
13°
1007.9 hPa 2.6 mm 8.9°
2
22%
05:00
13°
1008.2 hPa 2.7 mm 8.7°
2
69%
08:00
14°
1008.9 hPa   7.5°
1
42%
11:00
15°
1009.5 hPa 7.0 mm 9.7°
2
56%
14:00
16°
1010.1 hPa   11.4°
3
72%
17:00
15°
1009.8 hPa   11.5°
2
92%
20:00
15°
1009.1 hPa   11.5°
2
82%
23:00
13°
1006.8 hPa 23.2 mm 11.2°
2
91%
 03:33     23:37    Daglengte: 20:04 Donderdag 20 Jun
02:00
12°
1005.2 hPa 23.2 mm 11.1°
2
92%
05:00
13°
1004.0 hPa 23.3 mm 11.4°
2
91%
08:00
13°
1002.8 hPa 23.4 mm 11.7°
1
91%
11:00
15°
1003.4 hPa 23.4 mm 12.4°
2
87%
14:00
16°
1004.1 hPa 23.4 mm 13.0°
4
83%
17:00
15°
1005.0 hPa 24.0 mm 12.4°
3
76%
20:00
14°
1006.0 hPa 24.8 mm 11.7°
3
68%
23:00
13°
1006.2 hPa 24.9 mm 11.4°
2
76%
 03:33     23:38    Daglengte: 20:05 Vrijdag 21 Jun
02:00
12°
1006.5 hPa 26.2 mm 11.0°
2
83%
05:00
12°
1006.4 hPa 27.0 mm 11.0°
1
82%
08:00
13°
1006.3 hPa 27.8 mm 10.9°
1
80%
11:00
14°
1006.5 hPa 29.7 mm 11.7°
2
85%
14:00
15°
1006.5 hPa 31.4 mm 12.4°
3
90%
17:00
14°
1007.8 hPa 31.9 mm 11.2°
3
87%
20:00
13°
1009.0 hPa 32.2 mm 10.1°
2
84%
23:00
11°
1009.7 hPa 32.6 mm 9.5°
3
78%
 03:33     23:38    Daglengte: 20:05 Zaterdag 22 Jun
02:00
10°
1010.4 hPa 33.1 mm 8.9°
5
72%
05:00
11°
1010.3 hPa 37.1 mm 9.2°
6
81%
08:00
11°
1010.2 hPa 41.1 mm 9.4°
6
90%
11:00
12°
1012.4 hPa 41.7 mm 9.2°
6
83%
14:00
13°
1014.6 hPa 42.1 mm 9.1°
7
76%
17:00
12°
1016.0 hPa 42.8 mm 9.2°
7
70%
20:00
11°
1017.5 hPa 43.2 mm 9.2°
6
63%
23:00
10°
1019.1 hPa 43.4 mm 8.6°
5
67%
 03:33     23:38    Daglengte: 20:05 Zondag 23 Jun
02:00
10°
Voelt als: 7.2°
1020.6 hPa 44.1 mm 8.1°
5
71%
05:00
10°
1021.2 hPa 44.9 mm 8.5°
5
70%
08:00
11°
1021.7 hPa 46.2 mm 8.8°
5
68%
11:00
12°
1023.3 hPa 46.4 mm 8.9°
4
61%
14:00
13°
1024.9 hPa 46.5 mm 8.9°
4
54%
17:00
13°
1024.7 hPa   8.6°
4
59%
20:00
13°
1024.6 hPa 93.4 mm 8.1°
3
64%
 03:34     23:37    Daglengte: 20:03 Maandag 24 Jun
02:00
10°
Voelt als: 9.3°
1025.4 hPa 93.5 mm 8.4°
2
68%
08:00
12°
1025.1 hPa 93.5 mm 8.8°
2
75%
14:00
16°
1024.6 hPa 93.5 mm 10.6°
4
89%
20:00
16°
1024.5 hPa 93.5 mm 11.3°
3
90%
 03:35     23:37    Daglengte: 20:02 Dinsdag 25 Jun
02:00
11°
1023.1 hPa 93.5 mm 9.5°
2
86%
08:00
13°
1022.8 hPa 93.5 mm 9.5°
2
88%
14:00
18°
1020.4 hPa 93.5 mm 12.5°
3
85%
20:00
14°
1021.3 hPa 93.8 mm 10.9°
3
71%
 03:36     23:37    Daglengte: 20:01 Woensdag 26 Jun
02:00
12°
1005.4 hPa 94.5 mm 10.9°
0
1%
08:00
13°
1004.7 hPa 98.4 mm 11.9°
1
1%
14:00
16°
1016.2 hPa 0.4 mm 8.1°
4
50%
20:00
14°
1016.0 hPa 0.4 mm 8.2°
4
52%
 03:36     23:36    Daglengte: 20:00 Donderdag 27 Jun
02:00
10°
1016.3 hPa 0.4 mm 8.0°
2
50%
08:00
12°
1015.3 hPa 0.6 mm 7.8°
2
58%
14:00
15°
1014.3 hPa 1.0 mm 8.0°
3
56%
20:00
14°
1013.7 hPa 0.9 mm 8.2°
3
54%
 03:37     23:36    Daglengte: 19:59 Vrijdag 28 Jun
02:00
10°
Voelt als: 9.7°
1013.8 hPa 0.6 mm 7.9°
1
48%
08:00
12°
1012.5 hPa 1.0 mm 7.9°
1
54%
14:00
16°
1011.4 hPa 0.5 mm 8.1°
2
56%
20:00
14°
1010.8 hPa 0.4 mm 8.9°
3
54%
 03:39     23:35    Daglengte: 19:56 Zaterdag 29 Jun
02:00
11°
1010.8 hPa 0.5 mm 8.9°
1
62%
08:00
13°
1009.8 hPa 0.9 mm 9.4°
1
67%
14:00
16°
1009.7 hPa 0.9 mm 9.5°
2
66%
20:00
14°
1010.0 hPa 1.1 mm 9.5°
2
64%
 03:40     23:34    Daglengte: 19:54 Zondag 30 Jun
02:00
11°
1010.7 hPa 1.0 mm 9.1°
1
58%
08:00
13°
1010.2 hPa 1.3 mm 9.0°
0
52%
14:00
16°
1009.9 hPa 1.2 mm 9.3°
2
48%
20:00
15°
1009.9 hPa 1.3 mm 9.3°
2
47%
 03:41     23:33    Daglengte: 19:52 Maandag 01 Jul
02:00
11°
1010.5 hPa 0.9 mm 9.1°
0
43%
08:00
13°
1009.9 hPa 1.1 mm 9.1°
1
48%
14:00
17°
1009.7 hPa 1.0 mm 9.4°
2
55%
  CAPE Lifted Index Hail Supercell Tornado SRH 3km CL BTM PRES CL TOP PRES Swiss DWD icon SMHI TS
 03:33     23:35    Daglengte: 20:02 Vandaag
19:00 2 J/kg 3.7 K 0 % 0 % 0 % 0 m²/s² 0 0 4.63 61
20:00 2 J/kg 4.7 K 0 % 0 % 0 % 0 m²/s² 0 0 5.45 61
21:00 2 J/kg 5.9 K 0 % 0 % 0 % 0 m²/s² 0 0 7.16 80
22:00 0 J/kg 6.3 K 0 % 0 % 0 % 0 m²/s² 0 0 7.83 80
23:00 0 J/kg 5.9 K 0 % 0 % 0 % 0 m²/s² 0 0 6.41 80
 03:33     23:36    Daglengte: 20:03 Morgen
00:00 0 J/kg 5.5 K 0 % 0 % 0 % 0 m²/s² 0 0 5.89 61
01:00 0 J/kg 5.2 K 0 % 0 % 0 % 0 m²/s² 0 0 5.44 61
02:00 0 J/kg 5.4 K 0 % 0 % 0 % 0 m²/s² 0 0 5.85 61
03:00 0 J/kg 4.5 K 0 % 0 % 0 % 0 m²/s² 0 0 5.4 61
04:00 2 J/kg 3.8 K 0 % 0 % 0 % 0 m²/s² 0 0 5.12 61
05:00 20 J/kg 4.1 K 0 % 0 % 0 % 0 m²/s² 0 0 5.84 61
06:00 4 J/kg 4.9 K 0 % 0 % 0 % 0 m²/s² 0 0 7.36 61
07:00 0 J/kg 5.5 K 0 % 0 % 0 % 0 m²/s² 0 0 9.01 61
08:00 0 J/kg 6.1 K 0 % 0 % 0 % 0 m²/s² 0 0 10.63 3
09:00 0 J/kg 6.9 K 0 % 0 % 0 % 0 m²/s² 0 0 11.22 3
10:00 0 J/kg 6.9 K 0 % 0 % 0 % 0 m²/s² 0 0 10.8 3
11:00 0 J/kg 6.4 K 0 % 0 % 0 % 0 m²/s² 0 0 9.82 3
12:00 0 J/kg 5.7 K 0 % 0 % 0 % 0 m²/s² 0 0 8.85 1
13:00 0 J/kg 4.6 K 0 % 0 % 0 % 0 m²/s² 0 0 6.85 0
14:00 0 J/kg 3.3 K 0 % 0 % 0 % 0 m²/s² 0 0 4.86 1
15:00 0 J/kg 2.2 K 0 % 0 % 0 % 0 m²/s² 0 0 3.34 0
16:00 6 J/kg 2.2 K 0 % 0 % 0 % 0 m²/s² 0 0 2.56 0
17:00 0 J/kg 0.9 K 0 % 0 % 0 % 0 m²/s² 0 0 1.26 3
18:00 3 J/kg 0.3 K 0 % 0 % 0 % 0 m²/s² 0 0 0.33 2
19:00 57 J/kg -0.1 K 0 % 0 % 0 % 0 m²/s² 0 0 0.02 2
20:00 183 J/kg -0.4 K 0 % 0 % 0 % 0 m²/s² 0 0 -0.1 3
21:00 354 J/kg -1.0 K 0 % 0 % 0 % 0 m²/s² 0 0 0.41 61
22:00 414 J/kg -0.9 K 0 % 0 % 0 % 0 m²/s² 0 0 0.81 61
23:00 364 J/kg -0.6 K 0 % 0 % 0 % 0 m²/s² 0 0 1.68 61
 03:33     23:36    Daglengte: 20:03 Dinsdag 18 Jun
00:00 331 J/kg -0.5 K 0 % 0 % 0 % 0 m²/s² 0 0 2.2 3
01:00 238 J/kg 0.2 K 0 % 0 % 0 % 0 m²/s² 0 0 3.29 80
02:00 88 J/kg 1.1 K 0 % 0 % 0 % 0 m²/s² 0 0 4.13 80
03:00 88 J/kg 1.3 K 0 % 0 % 0 % 0 m²/s² 0 0 3.7 1
04:00 10 J/kg 1.6 K 0 % 0 % 0 % 0 m²/s² 0 0 3.52 1
05:00 10 J/kg 0.7 K 0 % 0 % 0 % 0 m²/s² 0 0 2.5 1
06:00 88 J/kg 0.4 K 0 % 0 % 0 % 0 m²/s² 0 0 2.26 2
07:00 244 J/kg -0.7 K 0 % 0 % 0 % 0 m²/s² 0 0 0.65 3
08:00 377 J/kg -1.7 K 0 % 0 % 0 % 0 m²/s² 0 0 -1.04 3
09:00 447 J/kg -2.3 K 0 % 0 % 0 % 0 m²/s² 0 0 -1.82 2
10:00 537 J/kg -2.8 K 0 % 0 % 0 % 0 m²/s² 0 0 -0.73 3
11:00 472 J/kg -2.2 K 0 % 0 % 0 % 0 m²/s² 0 0 -1.18 80
12:00 428 J/kg -1.7 K 0 % 0 % 0 % 0 m²/s² 0 0 0.01 80
13:00 359 J/kg -1.1 K 0 % 0 % 0 % 0 m²/s² 0 0 0.49 80
14:00 223 J/kg -0.3 K 0 % 0 % 0 % 0 m²/s² 0 0 1.17 1
15:00 196 J/kg -0.3 K 0 % 0 % 0 % 0 m²/s² 0 0 1.14 2
16:00 152 J/kg -0.3 K 0 % 0 % 0 % 0 m²/s² 0 0 1.59 1
17:00 73 J/kg 0.2 K 0 % 0 % 0 % 0 m²/s² 0 0 2.84 2
18:00 76 J/kg 0.0 K 0 % 0 % 0 % 0 m²/s² 0 0 2.4 2
19:00 111 J/kg -0.7 K 0 % 0 % 0 % 0 m²/s² 0 0 1.01 2
20:00 210 J/kg -0.6 K 0 % 0 % 0 % 0 m²/s² 0 0 1.17 3
21:00 229 J/kg -0.6 K 0 % 0 % 0 % 0 m²/s² 0 0 0.93 3
22:00 223 J/kg -1.2 K 0 % 0 % 0 % 0 m²/s² 0 0 -0.45 3
23:00 306 J/kg -2.3 K 0 % 0 % 0 % 0 m²/s² 0 0 -1.61 3
 03:32     23:37    Daglengte: 20:05 Woensdag 19 Jun
00:00 390 J/kg -1.9 K 0 % 0 % 0 % 0 m²/s² 0 0 -0.88 80
01:00 356 J/kg -0.8 K 0 % 0 % 0 % 0 m²/s² 0 0 -0.26 80
02:00 188 J/kg 1.1 K 0 % 0 % 0 % 0 m²/s² 0 0 1.88 2
03:00 14 J/kg 3.4 K 0 % 0 % 0 % 0 m²/s² 0 0 4.57 3
04:00 0 J/kg 4.5 K 0 % 0 % 0 % 0 m²/s² 0 0 5.46 3
05:00 0 J/kg 3.9 K 0 % 0 % 0 % 0 m²/s² 0 0 5.07 80
06:00 0 J/kg 3.9 K 0 % 0 % 0 % 0 m²/s² 0 0 6.15 2
07:00 53 J/kg 4.0 K 0 % 0 % 0 % 0 m²/s² 0 0 6.7 80
08:00 85 J/kg 3.7 K 0 % 0 % 0 % 0 m²/s² 0 0 6.43 80
09:00 106 J/kg 3.4 K 0 % 0 % 0 % 0 m²/s² 0 0 5.83 3
10:00 122 J/kg 3.5 K 0 % 0 % 0 % 0 m²/s² 0 0 5.72 2
11:00 120 J/kg 3.3 K 0 % 0 % 0 % 0 m²/s² 0 0 4.98 3
12:00 92 J/kg 3.5 K 0 % 0 % 0 % 0 m²/s² 0 0 4.73 3
13:00 85 J/kg 3.7 K 0 % 0 % 0 % 0 m²/s² 0 0 4.84 3
14:00 89 J/kg 3.6 K 0 % 0 % 0 % 0 m²/s² 0 0 5.01 3
15:00 29 J/kg 3.7 K 0 % 0 % 0 % 0 m²/s² 0 0 5.5 3
16:00 7 J/kg 4.1 K 0 % 0 % 0 % 0 m²/s² 0 0 6.23 3
17:00 0 J/kg 4.1 K 0 % 0 % 0 % 0 m²/s² 0 0 5.9 3
18:00 0 J/kg 4.1 K 0 % 0 % 0 % 0 m²/s² 0 0 5.63 3
Temp Baro Wind Neerslag
  EWN Forecast EWN WRFDA DWD ICON FMI HIRLAM MET Norway GFS
 03:33     23:35    Daglengte: 20:02 Vandaag
20:00 14.4° 1013.8 hPa 3.1 m/s 0.0 mm 12.8° 1012.7 hPa 3.4 m/s 1.7 mm 13.5° 1013.7 hPa 2.4 m/s -1.1 mm 13.7° 1014.2 hPa 2.4 m/s 0.0 mm 15.2° 1013.8 hPa 4.4 m/s 0.0 mm 12.1° 1013.3 hPa 1.1 m/s
23:00 13.5° 1014.4 hPa 1.5 m/s 1.4 mm 12.5° 1013.3 hPa 1.8 m/s 2.6 mm 12.9° 1014.4 hPa 0.9 m/s 1.5 mm 13.1° 1014.5 hPa 1.3 m/s 0.0 mm 13.8° 1014.4 hPa 1.3 m/s 0.8 mm 11.8° 1013.7 hPa 1.8 m/s
 03:33     23:36    Daglengte: 20:03 Morgen
02:00 13.1° 1014.8 hPa 1.7 m/s 2.7 mm 12.1° 1013.0 hPa 3.4 m/s 5.5 mm 12.3° 1015.0 hPa 1.3 m/s 1.5 mm 12.9° 1014.2 hPa 0.2 m/s 0.0 mm 13.2° 1015.1 hPa 1.8 m/s 2.6 mm 11.5° 1013.7 hPa 1.3 m/s
05:00 12.7° 1014.3 hPa 1.2 m/s 2.3 mm 12.2° 1012.7 hPa 2.7 m/s 7.9 mm 11.9° 1015.1 hPa 1.0 m/s 1.2 mm 12.8° 1013.5 hPa 2.1 m/s 0.0 mm 12.7° 1014.4 hPa 0.6 m/s 1.8 mm 11.3° 1013.5 hPa 1.2 m/s
08:00 12.5° 1014.1 hPa 1.4 m/s 1.9 mm 13.8° 1012.2 hPa 2.9 m/s 8.0 mm 12.2° 1014.5 hPa 1.0 m/s 1.0 mm 12.3° 1013.0 hPa 1.4 m/s 0.0 mm 13.3° 1014.2 hPa 0.8 m/s 0.0 mm 12.3° 1013.3 hPa 0.7 m/s
11:00 14.0° 1013.1 hPa 2.3 m/s 0.0 mm 15.6° 1011.7 hPa 1.8 m/s 8.0 mm 13.4° 1014.2 hPa 2.5 m/s 0.0 mm 12.5° 1012.9 hPa 1.5 m/s 0.0 mm 15.2° 1013.0 hPa 2.1 m/s 0.0 mm 13.3° 1012.9 hPa 1.2 m/s
14:00 16.4° 1011.5 hPa 3.0 m/s 0.0 mm 18.0° 1009.5 hPa 3.0 m/s 8.0 mm 16.3° 1012.9 hPa 3.0 m/s 0.0 mm 13.9° 1011.2 hPa 4.1 m/s 0.0 mm 17.5° 1011.5 hPa 1.4 m/s 0.0 mm 15.9° 1011.2 hPa 2.6 m/s
17:00 18.0° 1009.6 hPa 2.6 m/s 0.0 mm 18.2° 1008.9 hPa 1.8 m/s 8.0 mm 17.4° 1010.3 hPa 2.7 m/s 0.0 mm 17.0° 1008.9 hPa 3.1 m/s 0.0 mm 19.1° 1009.7 hPa 1.2 m/s 0.0 mm 16.9° 1010.3 hPa 1.6 m/s
20:00 16.6° 1008.6 hPa 2.6 m/s 0.0 mm 14.4° 1008.0 hPa 2.4 m/s 16.8 mm 16.8° 1008.5 hPa 2.3 m/s 0.0 mm 16.7° 1007.1 hPa 3.2 m/s 0.0 mm 16.5° 1009.6 hPa 1.4 m/s 0.0 mm 15.4° 1008.6 hPa 1.2 m/s
23:00 13.9° 1009.1 hPa 1.9 m/s 4.3 mm 13.3° 1008.0 hPa 2.0 m/s 26.3 mm 13.1° 1009.1 hPa 1.5 m/s 2.8 mm 12.4° 1008.1 hPa 4.0 m/s 0.0 mm 15.0° 1009.6 hPa 0.6 m/s 0.0 mm 11.5° 1009.0 hPa 2.8 m/s
 03:33     23:36    Daglengte: 20:03 Dinsdag 18 Jun
02:00 13.1° 1009.2 hPa 1.7 m/s 6.3 mm 11.7° 1007.5 hPa 2.8 m/s 26.5 mm 12.2° 1009.3 hPa 0.4 m/s 1.9 mm 12.3° 1008.8 hPa 0.9 m/s 0.0 mm 13.7° 1009.8 hPa 1.8 m/s 0.0 mm 10.8° 1008.7 hPa 1.3 m/s
05:00 13.0° 1008.3 hPa 2.1 m/s 0.0 mm 12.2° 1006.5 hPa 3.2 m/s 26.5 mm 12.1° 1008.2 hPa 1.4 m/s 0.0 mm 12.6° 1008.8 hPa 1.6 m/s 0.0 mm 13.1° 1008.4 hPa 2.1 m/s 0.0 mm 11.0° 1008.2 hPa 2.6 m/s
08:00 13.8° 1007.5 hPa 2.1 m/s 0.0 mm 15.5° 1004.8 hPa 5.9 m/s 26.5 mm 13.9° 1006.9 hPa 1.7 m/s 0.0 mm 12.7° 1008.8 hPa 3.5 m/s 0.0 mm 13.2° 1007.9 hPa 1.4 m/s 0.5 mm 13.8° 1007.0 hPa 1.6 m/s
11:00 15.8° 1007.3 hPa 4.1 m/s 2.0 mm 15.4° 1005.7 hPa 8.6 m/s 28.8 mm 14.9° 1007.3 hPa 3.0 m/s 0.8 mm 13.9° 1009.8 hPa 4.6 m/s 0.0 mm 16.7° 1007.1 hPa 4.0 m/s 0.0 mm 13.5° 1007.6 hPa 3.6 m/s
14:00 16.6° 1008.0 hPa 5.0 m/s 6.9 mm 14.9° 1006.9 hPa 8.6 m/s 33.0 mm 15.3° 1008.3 hPa 7.6 m/s 0.5 mm 16.7° 1009.4 hPa 3.8 m/s 0.0 mm 17.0° 1008.1 hPa 4.5 m/s 0.0 mm 13.9° 1007.6 hPa 3.9 m/s
17:00 15.6° 1008.0 hPa 5.5 m/s 7.5 mm 15.2° 1007.4 hPa 8.1 m/s 33.6 mm 14.7° 1008.1 hPa 6.4 m/s 0.6 mm 17.2° 1008.5 hPa 5.5 m/s 0.0 mm 13.5° 1007.9 hPa 3.7 m/s
20:00 14.1° 1007.8 hPa 3.8 m/s 5.9 mm 13.9° 1006.6 hPa 4.6 m/s 33.6 mm 13.2° 1007.9 hPa 1.3 m/s 2.2 mm 15.2° 1008.6 hPa 4.3 m/s 0.0 mm 12.6° 1007.0 hPa 1.8 m/s
23:00 13.6° 1008.2 hPa 1.2 m/s 8.6 mm 13.1° 1007.1 hPa 1.3 m/s 34.1 mm 12.3° 1008.2 hPa 1.3 m/s 2.3 mm 13.8° 1009.1 hPa 0.5 m/s 0.0 mm 11.6° 1007.5 hPa 0.4 m/s
 03:32     23:37    Daglengte: 20:05 Woensdag 19 Jun
02:00 13.0° 1007.9 hPa 1.7 m/s 2.6 mm 13.2° 1006.6 hPa 2.2 m/s 36.9 mm 12.1° 1007.9 hPa 0.7 m/s 1.1 mm 12.9° 1009.2 hPa 1.8 m/s 0.0 mm 10.9° 1007.7 hPa 0.8 m/s
05:00 12.6° 1008.2 hPa 2.0 m/s 2.7 mm 11.7° 1007.2 hPa 4.6 m/s 37.2 mm 11.8° 1008.1 hPa 0.5 m/s 0.4 mm 12.5° 1009.3 hPa 1.7 m/s 0.0 mm 11.4° 1009.0 hPa 1.1 m/s
08:00 13.6° 1008.9 hPa 1.3 m/s 0.0 mm 14.1° 1006.8 hPa 5.7 m/s 38.1 mm 12.6° 1009.1 hPa 0.5 m/s 0.3 mm 13.8° 1009.6 hPa 1.0 m/s 0.0 mm 13.2° 1008.8 hPa 1.9 m/s
11:00 14.9° 1009.5 hPa 2.1 m/s 7.0 mm 15.1° 1007.6 hPa 3.4 m/s 38.3 mm 14.3° 1009.6 hPa 1.1 m/s 0.2 mm 15.0° 1010.2 hPa 1.9 m/s 13.7° 1009.6 hPa 0.7 m/s
14:00 15.5° 1010.1 hPa 2.6 m/s 0.0 mm 15.3° 1007.3 hPa 2.5 m/s 38.7 mm 15.1° 1010.3 hPa 3.0 m/s 0.2 mm 16.1° 1010.7 hPa 2.8 m/s 15.5° 1009.2 hPa 1.7 m/s
17:00 15.4° 1009.8 hPa 2.3 m/s 0.0 mm 15.4° 1007.1 hPa 2.8 m/s 39.0 mm 15.0° 1010.1 hPa 2.1 m/s 0.0 mm 15.5° 1010.2 hPa 2.2 m/s 15.3° 1009.3 hPa 2.8 m/s
20:00 15.1° 1009.1 hPa 1.6 m/s 0.0 mm 16.0° 1005.4 hPa 2.3 m/s 39.0 mm 15.1° 1009.2 hPa 0.7 m/s 0.0 mm 14.9° 1009.7 hPa 1.7 m/s 13.8° 1008.5 hPa 2.3 m/s
23:00 13.2° 1006.8 hPa 1.9 m/s 23.2 mm 13.3° 1006.6 hPa 2.0 m/s 12.1° 1008.6 hPa 1.0 m/s 23.2 mm
 03:33     23:37    Daglengte: 20:04 Donderdag 20 Jun
02:00 12.4° 1005.2 hPa 2.1 m/s 23.2 mm 12.5° 1005.1 hPa 2.2 m/s 11.5° 1006.0 hPa 0.4 m/s 23.2 mm
05:00 12.9° 1004.0 hPa 1.7 m/s 23.3 mm 13.1° 1004.0 hPa 1.8 m/s 11.8° 1004.5 hPa 1.0 m/s 23.3 mm
08:00 13.4° 1002.8 hPa 1.4 m/s 23.4 mm 13.6° 1002.8 hPa 1.4 m/s 11.7° 1002.4 hPa 0.9 m/s 23.4 mm
11:00 15.0° 1003.4 hPa 2.4 m/s 23.4 mm 14.9° 1003.6 hPa 2.5 m/s 15.0° 1001.1 hPa 1.3 m/s 23.4 mm
14:00 16.1° 1004.1 hPa 3.5 m/s 23.4 mm 16.3° 1004.5 hPa 3.6 m/s 13.7° 999.7 hPa 2.5 m/s 23.4 mm
17:00 15.1° 1005.0 hPa 3.0 m/s 24.0 mm 15.4° 1005.5 hPa 3.2 m/s 11.7° 1000.1 hPa 1.1 m/s 24.0 mm
20:00 14.3° 1006.0 hPa 2.6 m/s 24.8 mm 14.6° 1006.4 hPa 2.8 m/s 11.4° 1001.1 hPa 0.6 m/s 24.8 mm
23:00 13.1° 1006.2 hPa 2.1 m/s 24.9 mm 13.3° 1006.5 hPa 2.2 m/s 11.4° 1002.8 hPa 1.3 m/s 24.9 mm
 03:33     23:38    Daglengte: 20:05 Vrijdag 21 Jun
02:00 11.9° 1006.5 hPa 1.7 m/s 26.2 mm 12.0° 1006.7 hPa 1.6 m/s 11.2° 1004.0 hPa 2.4 m/s 26.2 mm
05:00 12.5° 1006.4 hPa 1.4 m/s 27.0 mm 12.6° 1006.5 hPa 1.4 m/s 11.1° 1005.0 hPa 2.1 m/s 27.0 mm
08:00 13.0° 1006.3 hPa 1.1 m/s 27.8 mm 13.2° 1006.4 hPa 1.1 m/s 11.0° 1005.7 hPa 1.5 m/s 27.8 mm
11:00 14.0° 1006.5 hPa 2.1 m/s 29.7 mm 14.3° 1006.4 hPa 2.2 m/s 11.0° 1007.0 hPa 1.6 m/s 29.7 mm
14:00 15.0° 1006.5 hPa 3.0 m/s 31.4 mm 15.4° 1006.4 hPa 3.2 m/s 10.8° 1008.0 hPa 1.0 m/s 31.4 mm
17:00 13.8° 1007.8 hPa 2.6 m/s 31.9 mm 13.9° 1007.8 hPa 2.8 m/s 12.5° 1008.2 hPa 0.7 m/s 31.9 mm
20:00 12.5° 1009.0 hPa 2.1 m/s 32.2 mm 12.5° 1009.1 hPa 2.3 m/s 12.8° 1008.1 hPa 0.5 m/s 32.2 mm
23:00 11.4° 1009.7 hPa 3.5 m/s 32.6 mm 11.3° 1009.8 hPa 3.6 m/s 11.4° 1008.8 hPa 1.7 m/s 32.6 mm
 03:33     23:38    Daglengte: 20:05 Zaterdag 22 Jun
02:00 10.3° 1010.4 hPa 4.6 m/s 33.1 mm 10.2° 1010.5 hPa 5.0 m/s 10.9° 1009.0 hPa 0.5 m/s 33.1 mm
05:00 10.7° 1010.3 hPa 5.5 m/s 37.1 mm 10.8° 1010.4 hPa 5.5 m/s 9.7° 1009.7 hPa 5.5 m/s 37.1 mm
08:00 11.2° 1010.2 hPa 5.6 m/s 41.1 mm 11.3° 1010.2 hPa 6.0 m/s 10.2° 1010.7 hPa 1.3 m/s 41.1 mm
11:00 11.9° 1012.4 hPa 6.1 m/s 41.7 mm 12.0° 1012.4 hPa 6.5 m/s 11.3° 1012.2 hPa 1.6 m/s 41.7 mm
14:00 12.7° 1014.6 hPa 6.9 m/s 42.1 mm 12.7° 1014.6 hPa 7.1 m/s 12.7° 1014.0 hPa 5.0 m/s 42.1 mm
17:00 11.9° 1016.0 hPa 6.7 m/s 42.8 mm 12.0° 1016.0 hPa 6.5 m/s 11.1° 1015.6 hPa 9.4 m/s 42.8 mm
20:00 11.2° 1017.5 hPa 6.0 m/s 43.2 mm 11.3° 1017.5 hPa 5.9 m/s 10.3° 1017.5 hPa 7.1 m/s 43.2 mm
23:00 10.4° 1019.1 hPa 5.3 m/s 43.4 mm 10.5° 1019.0 hPa 5.5 m/s 9.6° 1019.7 hPa 3.5 m/s 43.4 mm
 03:33     23:38    Daglengte: 20:05 Zondag 23 Jun
02:00 9.6° 1020.6 hPa 4.9 m/s 44.1 mm 9.7° 1020.5 hPa 5.1 m/s 8.8° 1021.3 hPa 2.4 m/s 44.1 mm
05:00 10.1° 1021.2 hPa 4.8 m/s 44.9 mm 10.2° 1021.1 hPa 5.2 m/s 8.5° 1021.7 hPa 0.8 m/s 44.9 mm
08:00 10.5° 1021.7 hPa 4.8 m/s 46.2 mm 10.7° 1021.7 hPa 5.2 m/s 8.6° 1022.2 hPa 0.3 m/s 46.2 mm
11:00 12.1° 1023.3 hPa 4.3 m/s 46.4 mm 12.1° 1023.5 hPa 4.7 m/s 11.9° 1022.0 hPa 0.7 m/s 46.4 mm
14:00 13.4° 1024.9 hPa 4.0 m/s 46.5 mm 13.5° 1025.2 hPa 4.1 m/s 12.5° 1022.0 hPa 2.6 m/s 46.5 mm
17:00 13.2° 1024.7 hPa 3.7 m/s 46.7 mm 13.2° 1025.0 hPa 3.8 m/s 12.1° 1021.6 hPa 2.9 m/s 46.7 mm
20:00 12.9° 1024.6 hPa 3.2 m/s 46.7 mm 13.0° 1024.8 hPa 3.4 m/s 11.7° 1021.8 hPa 1.5 m/s 46.7 mm
 03:34     23:37    Daglengte: 20:03 Maandag 24 Jun
02:00 9.9° 1025.4 hPa 1.7 m/s 46.7 mm 9.9° 1025.7 hPa 1.8 m/s 9.5° 1022.1 hPa 0.8 m/s 46.7 mm
08:00 12.0° 1025.1 hPa 1.8 m/s 46.7 mm 12.0° 1025.5 hPa 1.8 m/s 11.9° 1020.4 hPa 1.3 m/s 46.7 mm
14:00 16.5° 1024.6 hPa 3.5 m/s 46.7 mm 16.5° 1025.1 hPa 3.6 m/s 16.1° 1018.6 hPa 2.7 m/s 46.7 mm
20:00 15.6° 1024.5 hPa 2.9 m/s 46.7 mm 15.7° 1025.2 hPa 2.9 m/s 15.0° 1016.5 hPa 2.8 m/s 46.7 mm
 03:35     23:37    Daglengte: 20:02 Dinsdag 25 Jun
02:00 10.7° 1023.1 hPa 1.9 m/s 46.7 mm 10.6° 1023.9 hPa 1.8 m/s 12.2° 1014.2 hPa 2.8 m/s 46.7 mm
08:00 12.6° 1022.8 hPa 1.8 m/s 46.8 mm 12.4° 1023.9 hPa 1.8 m/s 14.4° 1010.2 hPa 1.8 m/s 46.8 mm
14:00 17.6° 1020.4 hPa 2.9 m/s 46.8 mm 17.6° 1021.6 hPa 3.0 m/s 18.1° 1006.8 hPa 1.4 m/s 46.8 mm
20:00 14.4° 1021.3 hPa 2.6 m/s 47.0 mm 14.5° 1022.8 hPa 2.6 m/s 13.1° 1004.3 hPa 2.6 m/s 47.0 mm
 03:36     23:37    Daglengte: 20:01 Woensdag 26 Jun
02:00 12.4° 1005.4 hPa 0.4 m/s 47.5 mm 12.4° 1005.4 hPa 0.4 m/s 47.5 mm
08:00 13.5° 1004.7 hPa 1.2 m/s 50.1 mm 13.5° 1004.7 hPa 1.2 m/s 50.1 mm
14:00 15.5° 1016.2 hPa 3.5 m/s 0.4 mm
20:00 13.7° 1016.0 hPa 3.7 m/s 0.4 mm
 03:36     23:36    Daglengte: 20:00 Donderdag 27 Jun
02:00 10.0° 1016.3 hPa 2.1 m/s 0.4 mm
08:00 11.6° 1015.3 hPa 2.1 m/s 0.6 mm
14:00 15.1° 1014.3 hPa 3.1 m/s 1.0 mm
20:00 13.5° 1013.7 hPa 3.3 m/s 0.9 mm
 03:37     23:36    Daglengte: 19:59 Vrijdag 28 Jun
02:00 9.8° 1013.8 hPa 1.2 m/s 0.6 mm
08:00 12.0° 1012.5 hPa 0.9 m/s 1.0 mm
14:00 15.8° 1011.4 hPa